^^
Station Historical Data
Daily Summary for June 10, 2017 Units:  English    Metric   Both
« Previous Day
Next Day »
Daily Weekly Monthly Yearly Custom
  High: Low: Average:
Temperature: 85.3 °F 63.4 °F 74.4 °F
Dew Point: 61.9 °F 53.0 °F 58.2 °F
Humidity: 82 % 41 % 58 %
Wind Speed: 8.5 mph 0.0 mph 1.4 mph
Wind Gust: 18.4 mph - -
Wind:- - WSW
Pressure: 30.03 in 29.91 in -
Precipitation: 0.01 in    
Historical Graphs
 
 
Tabular Data for June 10, 2017
Time Temperature Dew Point Pressure Wind Wind Speed Wind Gust Humidity Rainfall Rate (Hourly) solar Conditions
00:03 68.4 °F 53.5 °F 29.91 in WSW 0.3 mph 3.5 mph 59 % 0.00 in 0.0 W/m2 BKN
00:08 68.3 °F 53.4 °F 29.91 in WSW 0.2 mph 3.5 mph 59 % 0.00 in 0.0 W/m2 BKN
00:13 68.3 °F 53.4 °F 29.91 in Calm   3.5 mph 59 % 0.00 in 0.0 W/m2 BKN
00:18 68.3 °F 53.4 °F 29.92 in Calm   3.5 mph 59 % 0.00 in 0.0 W/m2 BKN
00:23 68.3 °F 53.4 °F 29.92 in Calm   3.5 mph 59 % 0.00 in 0.0 W/m2 BKN
00:28 68.4 °F 53.0 °F 29.92 in Calm   3.5 mph 58 % 0.00 in 0.0 W/m2 BKN
00:33 68.5 °F 53.1 °F 29.92 in SW 1.2 mph 4.6 mph 58 % 0.00 in 0.0 W/m2 BKN
00:38 68.6 °F 53.2 °F 29.92 in SW 1.2 mph 4.6 mph 58 % 0.00 in 0.0 W/m2 BKN
00:43 68.6 °F 53.2 °F 29.92 in Calm   4.6 mph 58 % 0.00 in 0.0 W/m2 BKN
00:48 68.6 °F 53.2 °F 29.92 in WSW 0.6 mph 3.5 mph 58 % 0.00 in 0.0 W/m2 BKN
00:50 68.6 °F 53.2 °F 29.92 in Calm   3.5 mph 58 % 0.00 in 0.0 W/m2 BKN
00:55 68.7 °F 53.3 °F 29.92 in Calm     58 % 0.00 in 0.0 W/m2 BKN
01:00 68.7 °F 53.3 °F 29.92 in Calm   3.5 mph 58 % 0.00 in 0.0 W/m2 BKN
01:05 68.7 °F 53.3 °F 29.92 in Calm   3.0 mph 58 % 0.00 in 0.0 W/m2 OVC
01:10 68.7 °F 53.3 °F 29.92 in Calm     58 % 0.00 in 0.0 W/m2 OVC
01:15 68.7 °F 53.3 °F 29.92 in Calm   3.5 mph 58 % 0.00 in 0.0 W/m2 OVC
01:20 68.6 °F 53.2 °F 29.92 in Calm   3.5 mph 58 % 0.00 in 0.0 W/m2 OVC
01:25 68.5 °F 53.6 °F 29.92 in Calm   2.3 mph 59 % 0.00 in 0.0 W/m2 OVC
01:30 68.4 °F 53.5 °F 29.92 in Calm   2.3 mph 59 % 0.00 in 0.0 W/m2 OVC
01:35 68.2 °F 53.8 °F 29.93 in Calm     60 % 0.00 in 0.0 W/m2 OVC
01:40 68.1 °F 53.7 °F 29.92 in WSW 0.1 mph 3.5 mph 60 % 0.00 in 0.0 W/m2 OVC
01:45 67.9 °F 54.0 °F 29.92 in Calm   3.5 mph 61 % 0.00 in 0.0 W/m2 OVC
01:50 67.9 °F 54.0 °F 29.92 in Calm   2.0 mph 61 % 0.00 in 0.0 W/m2 OVC
01:55 67.8 °F 53.9 °F 29.93 in Calm     61 % 0.00 in 0.0 W/m2 OVC
02:00 67.8 °F 53.9 °F 29.93 in Calm   2.3 mph 61 % 0.00 in 0.0 W/m2 OVC
02:05 67.7 °F 53.8 °F 29.93 in Calm     61 % 0.00 in 0.0 W/m2 BKN
02:10 67.8 °F 53.9 °F 29.92 in Calm   1.2 mph 61 % 0.00 in 0.0 W/m2 BKN
02:15 67.9 °F 54.0 °F 29.93 in Calm   1.2 mph 61 % 0.00 in 0.0 W/m2 BKN
02:20 67.9 °F 54.0 °F 29.93 in Calm   2.0 mph 61 % 0.00 in 0.0 W/m2 BKN
02:25 67.7 °F 53.8 °F 29.93 in WSW 0.6 mph 2.3 mph 61 % 0.00 in 0.0 W/m2 BKN
02:30 67.6 °F 53.7 °F 29.93 in Calm   3.5 mph 61 % 0.00 in 0.0 W/m2 BKN
02:35 67.6 °F 54.1 °F 29.93 in Calm   3.5 mph 62 % 0.00 in 0.0 W/m2 BKN
02:40 67.4 °F 53.9 °F 29.93 in Calm   3.5 mph 62 % 0.00 in 0.0 W/m2 BKN
02:45 67.2 °F 54.2 °F 29.93 in WSW 0.2 mph 3.5 mph 63 % 0.00 in 0.0 W/m2 BKN
02:50 67.1 °F 54.1 °F 29.93 in Calm   3.5 mph 63 % 0.00 in 0.0 W/m2 BKN
02:55 66.9 °F 53.9 °F 29.93 in Calm   3.5 mph 63 % 0.00 in 0.0 W/m2 BKN
03:00 66.8 °F 54.2 °F 29.93 in WSW 0.8 mph 3.5 mph 64 % 0.00 in 0.0 W/m2 BKN
03:05 66.8 °F 54.2 °F 29.93 in Calm   3.5 mph 64 % 0.00 in 0.0 W/m2 FEW
03:10 66.7 °F 54.1 °F 29.93 in Calm   3.5 mph 64 % 0.00 in 0.0 W/m2 FEW
03:15 66.5 °F 53.9 °F 29.93 in Calm   1.2 mph 64 % 0.00 in 0.0 W/m2 FEW
03:20 66.4 °F 54.3 °F 29.93 in Calm   1.2 mph 65 % 0.00 in 0.0 W/m2 FEW
03:25 66.2 °F 54.1 °F 29.93 in Calm   3.5 mph 65 % 0.00 in 0.0 W/m2 FEW
03:30 66.1 °F 54.0 °F 29.93 in Calm   3.5 mph 65 % 0.00 in 0.0 W/m2 FEW
03:35 66.0 °F 53.9 °F 29.93 in Calm   3.5 mph 65 % 0.00 in 0.0 W/m2 FEW
03:40 65.7 °F 54.0 °F 29.93 in Calm   2.3 mph 66 % 0.00 in 0.0 W/m2 FEW
03:45 65.2 °F 54.0 °F 29.93 in Calm   2.3 mph 67 % 0.00 in 0.0 W/m2 FEW
03:50 64.8 °F 54.0 °F 29.93 in Calm     68 % 0.00 in 0.0 W/m2 FEW
03:55 64.7 °F 54.3 °F 29.93 in Calm     69 % 0.00 in 0.0 W/m2 FEW
04:00 64.4 °F 54.0 °F 29.93 in Calm     69 % 0.00 in 0.0 W/m2 FEW
04:05 64.5 °F 54.5 °F 29.93 in Calm   1.2 mph 70 % 0.00 in 0.0 W/m2 CLR
04:10 64.6 °F 54.2 °F 29.93 in Calm   1.2 mph 69 % 0.00 in 0.0 W/m2 CLR
04:15 64.5 °F 54.5 °F 29.93 in Calm   1.2 mph 70 % 0.00 in 0.0 W/m2 CLR
04:20 64.5 °F 54.5 °F 29.93 in Calm     70 % 0.00 in 0.0 W/m2 CLR
04:25 64.6 °F 54.6 °F 29.94 in Calm     70 % 0.00 in 0.0 W/m2 CLR
04:30 64.7 °F 54.7 °F 29.93 in Calm     70 % 0.00 in 0.0 W/m2 CLR
04:35 64.9 °F 54.9 °F 29.94 in Calm     70 % 0.00 in 0.0 W/m2 CLR
04:40 65.2 °F 54.8 °F 29.94 in Calm     69 % 0.00 in 0.0 W/m2 CLR
04:45 65.3 °F 54.9 °F 29.94 in Calm   1.2 mph 69 % 0.00 in 0.0 W/m2 CLR
04:50 65.5 °F 54.7 °F 29.94 in WSW 0.1 mph 1.2 mph 68 % 0.00 in 0.0 W/m2 CLR
04:55 65.8 °F 54.9 °F 29.94 in Calm   3.5 mph 68 % 0.00 in 0.0 W/m2 CLR
05:00 65.9 °F 54.6 °F 29.94 in Calm   3.5 mph 67 % 0.00 in 0.0 W/m2 CLR
05:05 66.1 °F 54.8 °F 29.94 in Calm   1.2 mph 67 % 0.00 in 0.0 W/m2 SCT
05:10 66.1 °F 54.8 °F 29.94 in Calm     67 % 0.00 in 0.0 W/m2 SCT
05:12 66.1 °F 54.8 °F 29.94 in Calm   2.3 mph 67 % 0.00 in 0.0 W/m2 SCT
05:17 66.0 °F 54.7 °F 29.94 in Calm   2.3 mph 67 % 0.00 in 0.0 W/m2 SCT
05:22 65.9 °F 54.6 °F 29.95 in Calm   2.3 mph 67 % 0.00 in 0.0 W/m2 SCT
05:27 65.8 °F 54.5 °F 29.95 in Calm   2.3 mph 67 % 0.00 in 0.0 W/m2 SCT
05:32 65.8 °F 54.9 °F 29.96 in WSW 0.2 mph 2.3 mph 68 % 0.00 in 0.0 W/m2 SCT
05:37 65.8 °F 54.9 °F 29.96 in Calm   3.5 mph 68 % 0.00 in 0.0 W/m2 SCT
05:42 65.9 °F 54.6 °F 29.96 in WSW 0.4 mph 3.5 mph 67 % 0.00 in 0.0 W/m2 SCT
05:47 66.0 °F 54.7 °F 29.96 in Calm   3.5 mph 67 % 0.00 in 0.0 W/m2 SCT
05:52 66.0 °F 54.7 °F 29.97 in Calm   3.5 mph 67 % 0.00 in 0.0 W/m2 SCT
05:57 66.0 °F 55.1 °F 29.97 in Calm   5.8 mph 68 % 0.00 in 5.0 W/m2 SCT
06:02 66.0 °F 54.7 °F 29.97 in West 1.7 mph 8.1 mph 67 % 0.00 in 9.0 W/m2 BKN
06:07 66.0 °F 55.1 °F 29.97 in West 0.4 mph 8.1 mph 68 % 0.00 in 11.0 W/m2 BKN
06:12 66.0 °F 55.1 °F 29.98 in NW 4.0 mph 10.4 mph 68 % 0.00 in 14.0 W/m2 BKN
06:17 65.9 °F 55.4 °F 29.98 in WNW 0.6 mph 10.4 mph 69 % 0.00 in 14.0 W/m2 BKN
06:27 65.5 °F 55.8 °F 29.98 in Calm   5.8 mph 71 % 0.00 in 11.0 W/m2 BKN
06:32 65.1 °F 56.2 °F 29.97 in Calm   5.8 mph 73 % 0.01 in 11.0 W/m2 RA
06:34 64.9 °F 56.4 °F 29.98 in Calm     74 % 0.01 in 12.0 W/m2 RA
06:39 64.3 °F 56.2 °F 29.98 in Calm     75 % 0.01 in 16.0 W/m2 BKN
06:44 64.1 °F 56.4 °F 29.98 in Calm     76 % 0.01 in 23.0 W/m2 BKN
06:49 63.8 °F 56.8 °F 29.98 in Calm     78 % 0.01 in 26.0 W/m2 BKN
06:54 63.6 °F 57.3 °F 29.98 in Calm     80 % 0.01 in 28.0 W/m2 BKN
06:59 63.9 °F 58.0 °F 29.98 in Calm     81 % 0.01 in 47.0 W/m2 BKN
07:04 63.8 °F 58.2 °F 29.98 in Calm     82 % 0.01 in 60.0 W/m2 -RA
07:09 63.4 °F 57.1 °F 29.99 in Calm     80 % 0.01 in 93.0 W/m2 -RA
07:14 63.7 °F 57.4 °F 29.99 in Calm     80 % 0.01 in 40.0 W/m2 -RA
07:19 64.0 °F 57.4 °F 29.99 in Calm     79 % 0.01 in 46.0 W/m2 -RA
07:25 64.3 °F 57.6 °F 29.99 in Calm     79 % 0.01 in 79.0 W/m2 -RA
07:30 64.4 °F 57.7 °F 29.99 in Calm     79 % 0.00 in 107.0 W/m2 -RA
07:35 64.6 °F 58.3 °F 29.99 in Calm     80 % 0.00 in 69.0 W/m2 -RA
07:40 64.8 °F 58.5 °F 29.99 in Calm     80 % 0.00 in 93.0 W/m2 -RA
07:45 64.9 °F 58.6 °F 30.00 in Calm     80 % 0.00 in 95.0 W/m2 -RA
07:50 65.3 °F 58.6 °F 30.00 in Calm     79 % 0.00 in 65.0 W/m2 -RA
07:55 65.3 °F 58.3 °F 30.00 in Calm     78 % 0.00 in 62.0 W/m2 -RA
08:00 65.4 °F 58.4 °F 30.00 in Calm     78 % 0.00 in 70.0 W/m2 -RA
08:05 65.5 °F 58.8 °F 30.00 in Calm     79 % 0.00 in 86.0 W/m2 OVC
08:10 65.6 °F 59.3 °F 30.00 in Calm     80 % 0.00 in 123.0 W/m2 OVC
08:15 65.9 °F 58.8 °F 30.01 in Calm     78 % 0.00 in 105.0 W/m2 OVC
08:21 66.3 °F 58.9 °F 30.01 in Calm     77 % 0.00 in 160.0 W/m2 OVC
08:26 66.7 °F 59.6 °F 30.02 in West 0.5 mph   78 % 0.00 in 149.0 W/m2 OVC
08:31 67.1 °F 59.3 °F 30.02 in NW 1.4 mph 5.8 mph 76 % 0.00 in 149.0 W/m2 OVC
08:36 67.2 °F 59.0 °F 30.02 in Calm   5.8 mph 75 % 0.00 in 258.0 W/m2 OVC
08:41 68.1 °F 59.5 °F 30.02 in NW 0.1 mph 4.6 mph 74 % 0.00 in 248.0 W/m2 OVC
08:46 68.7 °F 59.3 °F 30.02 in West 1.9 mph 6.9 mph 72 % 0.00 in 237.0 W/m2 OVC
08:51 68.7 °F 58.5 °F 30.02 in WSW 0.1 mph 6.9 mph 70 % 0.00 in 209.0 W/m2 OVC
08:52 68.8 °F 58.6 °F 30.02 in West 0.7 mph 6.9 mph 70 % 0.00 in 209.0 W/m2 OVC
08:57 68.8 °F 58.2 °F 30.02 in Calm   8.1 mph 69 % 0.00 in 200.0 W/m2 OVC
09:02 68.8 °F 57.8 °F 30.02 in Calm   8.1 mph 68 % 0.00 in 174.0 W/m2 FEW
09:07 68.8 °F 58.2 °F 30.02 in Calm   3.5 mph 69 % 0.00 in 171.0 W/m2 FEW
09:12 69.0 °F 58.4 °F 30.02 in Calm   3.5 mph 69 % 0.00 in 169.0 W/m2 FEW
09:17 69.2 °F 59.0 °F 30.02 in SW 0.9 mph 6.9 mph 70 % 0.00 in 209.0 W/m2 FEW
09:22 69.3 °F 58.7 °F 30.02 in WSW 1.8 mph 6.9 mph 69 % 0.00 in 206.0 W/m2 FEW
09:27 69.5 °F 58.9 °F 30.02 in Calm   6.9 mph 69 % 0.00 in 171.0 W/m2 FEW
09:32 69.5 °F 58.5 °F 30.02 in WSW 3.1 mph 3.5 mph 68 % 0.00 in 179.0 W/m2 FEW
09:37 69.5 °F 58.5 °F 30.02 in Calm   3.5 mph 68 % 0.00 in 179.0 W/m2 FEW
09:42 69.9 °F 58.9 °F 30.02 in Calm   3.5 mph 68 % 0.00 in 186.0 W/m2 FEW
09:47 70.0 °F 58.5 °F 30.01 in Calm   1.2 mph 67 % 0.00 in 185.0 W/m2 FEW
09:52 70.0 °F 59.0 °F 30.01 in Calm   1.2 mph 68 % 0.00 in 221.0 W/m2 FEW
09:57 70.1 °F 58.6 °F 30.01 in WSW 3.2 mph 3.5 mph 67 % 0.00 in 352.0 W/m2 FEW
09:58 70.1 °F 58.6 °F 30.02 in SW 3.8 mph 4.6 mph 67 % 0.00 in 353.0 W/m2 FEW
10:02 70.4 °F 58.5 °F 30.01 in Calm   5.8 mph 66 % 0.00 in 295.0 W/m2 -RA
10:07 70.8 °F 58.4 °F 30.01 in Calm   5.8 mph 65 % 0.00 in 236.0 W/m2 -RA
10:12 70.7 °F 57.9 °F 30.01 in WSW 1.0 mph 6.9 mph 64 % 0.00 in 255.0 W/m2 -RA
10:17 71.5 °F 58.7 °F 30.00 in SSW 4.3 mph 6.9 mph 64 % 0.00 in 830.0 W/m2 -RA
10:22 72.4 °F 58.6 °F 30.01 in SW 3.8 mph 10.4 mph 62 % 0.00 in 881.0 W/m2 -RA
10:27 73.1 °F 58.4 °F 30.00 in SW 2.5 mph 10.4 mph 60 % 0.00 in 998.0 W/m2 -RA
10:32 73.4 °F 57.7 °F 30.00 in SW 7.0 mph 10.4 mph 58 % 0.00 in 371.0 W/m2 -RA
10:37 73.5 °F 57.8 °F 30.00 in WSW 3.8 mph 10.4 mph 58 % 0.00 in 898.0 W/m2 -RA
10:42 74.2 °F 58.5 °F 30.00 in SSW 2.6 mph 10.4 mph 58 % 0.00 in 919.0 W/m2 -RA
10:47 74.5 °F 58.8 °F 30.00 in WSW 4.0 mph 9.2 mph 58 % 0.00 in 773.0 W/m2 -RA
10:52 74.8 °F 58.5 °F 30.00 in SW 6.4 mph 9.2 mph 57 % 0.00 in 838.0 W/m2 -RA
10:57 75.3 °F 59.5 °F 30.00 in WSW 3.3 mph 10.4 mph 58 % 0.00 in 837.0 W/m2 -RA
11:02 76.0 °F 59.7 °F 30.00 in SW 1.7 mph 10.4 mph 57 % 0.00 in 831.0 W/m2 CLR
11:07 76.3 °F 58.4 °F 30.01 in SSW 7.4 mph 10.4 mph 54 % 0.00 in 856.0 W/m2 CLR
11:12 76.1 °F 58.2 °F 30.01 in SSW 3.6 mph 13.8 mph 54 % 0.00 in 831.0 W/m2 CLR
11:17 76.3 °F 58.4 °F 30.01 in SW 4.9 mph 13.8 mph 54 % 0.00 in 877.0 W/m2 CLR
11:26 76.6 °F 59.2 °F 30.01 in SW 8.3 mph 12.7 mph 55 % 0.00 in 817.0 W/m2 RA
11:31 77.4 °F 59.5 °F 30.01 in SSW 3.1 mph 12.7 mph 54 % 0.00 in 888.0 W/m2 RA
11:36 77.4 °F 58.4 °F 30.01 in West 3.9 mph 12.7 mph 52 % 0.00 in 902.0 W/m2 CLR
11:41 78.0 °F 59.5 °F 30.01 in West 5.5 mph 11.5 mph 53 % 0.00 in 891.0 W/m2 CLR
11:46 78.3 °F 59.2 °F 30.01 in SW 1.2 mph 13.8 mph 52 % 0.00 in 904.0 W/m2 CLR
11:51 78.7 °F 59.0 °F 30.00 in SW 4.3 mph 13.8 mph 51 % 0.00 in 904.0 W/m2 CLR
11:56 78.7 °F 57.9 °F 30.01 in SSW 5.4 mph 11.5 mph 49 % 0.00 in 921.0 W/m2 CLR
12:01 79.0 °F 58.2 °F 30.01 in WSW 2.9 mph 12.7 mph 49 % 0.00 in 921.0 W/m2 CLR
12:06 78.5 °F 57.7 °F 30.01 in WSW 4.8 mph 13.8 mph 49 % 0.00 in 937.0 W/m2 CLR
12:11 78.7 °F 58.5 °F 30.01 in West 6.9 mph 13.8 mph 50 % 0.00 in 921.0 W/m2 CLR
12:16 78.7 °F 59.0 °F 30.00 in WSW 5.3 mph 13.8 mph 51 % 0.00 in 895.0 W/m2 CLR
12:22 79.4 °F 59.1 °F 30.00 in SW 3.6 mph 13.8 mph 50 % 0.00 in 898.0 W/m2 CLR
12:27 79.8 °F 58.4 °F 30.00 in SSW 7.5 mph 11.5 mph 48 % 0.00 in 907.0 W/m2 CLR
12:32 79.8 °F 58.4 °F 30.00 in WSW 4.3 mph 13.8 mph 48 % 0.00 in 912.0 W/m2 CLR
12:37 80.4 °F 58.9 °F 30.00 in SSW 3.5 mph 13.8 mph 48 % 0.00 in 921.0 W/m2 CLR
12:42 80.5 °F 59.0 °F 30.00 in WSW 2.8 mph 13.8 mph 48 % 0.00 in 921.0 W/m2 CLR
12:47 80.3 °F 58.8 °F 30.00 in SSW 8.0 mph 16.1 mph 48 % 0.00 in 940.0 W/m2 CLR
12:52 80.8 °F 59.9 °F 30.00 in SSW 3.0 mph 16.1 mph 49 % 0.00 in 942.0 W/m2 CLR
12:57 81.1 °F 59.0 °F 30.00 in SSW 6.3 mph 13.8 mph 47 % 0.00 in 947.0 W/m2 CLR
13:02 81.1 °F 59.6 °F 30.00 in WNW 2.6 mph 13.8 mph 48 % 0.00 in 942.0 W/m2 CLR
13:07 81.6 °F 60.0 °F 30.00 in WSW 6.9 mph 16.1 mph 48 % 0.00 in 944.0 W/m2 CLR
13:12 81.9 °F 59.7 °F 30.00 in SW 7.6 mph 16.1 mph 47 % 0.00 in 947.0 W/m2 CLR
13:17 81.9 °F 59.7 °F 30.00 in WSW 6.2 mph 16.1 mph 47 % 0.00 in 940.0 W/m2 CLR
13:22 81.8 °F 59.6 °F 30.00 in SSW 4.6 mph 12.7 mph 47 % 0.00 in 953.0 W/m2 CLR
13:27 82.4 °F 60.7 °F 29.99 in SSW 4.5 mph 12.7 mph 48 % 0.00 in 953.0 W/m2 CLR
13:32 82.6 °F 59.7 °F 29.99 in SSW 3.5 mph 16.1 mph 46 % 0.00 in 944.0 W/m2 CLR
13:37 82.5 °F 59.0 °F 29.99 in WSW 1.8 mph 16.1 mph 45 % 0.00 in 937.0 W/m2 CLR
13:42 82.8 °F 59.9 °F 29.99 in SSW 7.5 mph 18.4 mph 46 % 0.00 in 933.0 W/m2 CLR
13:47 83.1 °F 60.2 °F 29.99 in South 3.5 mph 18.4 mph 46 % 0.00 in 956.0 W/m2 CLR
13:52 83.2 °F 60.3 °F 29.99 in SSW 2.4 mph 18.4 mph 46 % 0.00 in 965.0 W/m2 CLR
13:57 83.3 °F 59.7 °F 29.99 in SW 5.3 mph 17.3 mph 45 % 0.00 in 911.0 W/m2 CLR
14:02 83.6 °F 58.7 °F 29.99 in WNW 5.7 mph 17.3 mph 43 % 0.00 in 930.0 W/m2 CLR
14:07 83.3 °F 58.5 °F 29.98 in NW 1.7 mph 16.1 mph 43 % 0.00 in 900.0 W/m2 CLR
14:12 83.7 °F 58.8 °F 29.98 in WNW 5.8 mph 16.1 mph 43 % 0.00 in 923.0 W/m2 CLR
14:17 83.8 °F 58.9 °F 29.98 in SW 5.4 mph 16.1 mph 43 % 0.00 in 218.0 W/m2 CLR
14:22 83.2 °F 59.0 °F 29.98 in SW 5.3 mph 15.0 mph 44 % 0.00 in 926.0 W/m2 CLR
14:27 83.7 °F 59.5 °F 29.98 in SW 8.5 mph 18.4 mph 44 % 0.00 in 893.0 W/m2 CLR
14:32 84.0 °F 59.1 °F 29.98 in West 4.1 mph 18.4 mph 43 % 0.00 in 895.0 W/m2 CLR
14:37 84.1 °F 59.2 °F 29.97 in WNW 6.9 mph 18.4 mph 43 % 0.00 in 809.0 W/m2 CLR
14:42 84.5 °F 59.5 °F 29.98 in WSW 2.5 mph 15.0 mph 43 % 0.00 in 865.0 W/m2 CLR
14:47 84.9 °F 60.6 °F 29.97 in SSW 0.8 mph 13.8 mph 44 % 0.00 in 882.0 W/m2 CLR
14:52 84.7 °F 58.4 °F 29.97 in South 3.0 mph 13.8 mph 41 % 0.00 in 865.0 W/m2 CLR
14:57 85.0 °F 59.3 °F 29.97 in West 3.9 mph 15.0 mph 42 % 0.00 in 875.0 W/m2 CLR
15:02 84.4 °F 58.8 °F 29.97 in West 2.7 mph 16.1 mph 42 % 0.00 in 881.0 W/m2 BKN
15:07 84.5 °F 59.5 °F 29.97 in WSW 2.0 mph 16.1 mph 43 % 0.00 in 881.0 W/m2 BKN
15:12 84.7 °F 59.7 °F 29.97 in WSW 0.1 mph 12.7 mph 43 % 0.00 in 900.0 W/m2 BKN
15:17 84.2 °F 59.3 °F 29.97 in SW 1.4 mph 12.7 mph 43 % 0.00 in 879.0 W/m2 BKN
15:22 84.4 °F 60.1 °F 29.97 in WSW 2.1 mph 10.4 mph 44 % 0.00 in 234.0 W/m2 BKN
15:27 83.8 °F 58.9 °F 29.96 in WSW 2.9 mph 15.0 mph 43 % 0.00 in 301.0 W/m2 BKN
15:32 83.8 °F 60.2 °F 29.97 in Calm   15.0 mph 45 % 0.00 in 279.0 W/m2 BKN
15:37 83.6 °F 60.0 °F 29.96 in WSW 2.5 mph 10.4 mph 45 % 0.00 in 329.0 W/m2 BKN
15:42 83.6 °F 60.6 °F 29.96 in SW 2.9 mph 9.2 mph 46 % 0.00 in 348.0 W/m2 BKN
15:48 83.7 °F 60.7 °F 29.96 in WSW 2.7 mph 11.5 mph 46 % 0.00 in 316.0 W/m2 BKN
15:53 83.6 °F 60.0 °F 29.96 in WSW 5.6 mph 11.5 mph 45 % 0.00 in 251.0 W/m2 BKN
15:58 83.7 °F 60.7 °F 29.96 in NW 1.1 mph 16.1 mph 46 % 0.00 in 281.0 W/m2 BKN
16:03 84.6 °F 60.3 °F 29.96 in West 1.2 mph 16.1 mph 44 % 0.00 in 900.0 W/m2 BKN
16:08 85.3 °F 61.6 °F 29.96 in WNW 2.3 mph 10.4 mph 45 % 0.00 in 835.0 W/m2 BKN
16:13 85.2 °F 60.8 °F 29.96 in SSW 0.3 mph 10.4 mph 44 % 0.00 in 795.0 W/m2 BKN
16:18 84.7 °F 60.4 °F 29.96 in West 1.7 mph 10.4 mph 44 % 0.00 in 401.0 W/m2 BKN
16:23 84.1 °F 61.1 °F 29.96 in Calm   10.4 mph 46 % 0.00 in 782.0 W/m2 BKN
16:28 84.5 °F 61.4 °F 29.96 in West 3.7 mph 8.1 mph 46 % 0.00 in 663.0 W/m2 BKN
16:33 84.5 °F 61.4 °F 29.96 in WNW 0.6 mph 8.1 mph 46 % 0.00 in 635.0 W/m2 BKN
16:38 84.3 °F 61.3 °F 29.95 in NW 1.2 mph 11.5 mph 46 % 0.00 in 619.0 W/m2 BKN
16:43 84.7 °F 61.6 °F 29.95 in WSW 3.1 mph 11.5 mph 46 % 0.00 in 605.0 W/m2 BKN
16:48 84.6 °F 60.9 °F 29.95 in West 1.7 mph 12.7 mph 45 % 0.00 in 612.0 W/m2 BKN
16:53 84.7 °F 61.0 °F 29.95 in WSW 0.6 mph 12.7 mph 45 % 0.00 in 592.0 W/m2 BKN
16:58 85.2 °F 61.5 °F 29.95 in SW 2.5 mph 9.2 mph 45 % 0.00 in 606.0 W/m2 BKN
17:03 85.1 °F 61.4 °F 29.95 in WSW 0.8 mph 11.5 mph 45 % 0.00 in 299.0 W/m2 FEW
17:08 84.8 °F 60.5 °F 29.95 in SW 4.1 mph 11.5 mph 44 % 0.00 in 615.0 W/m2 FEW
17:13 84.4 °F 59.5 °F 29.95 in SW 8.3 mph 16.1 mph 43 % 0.00 in 156.0 W/m2 FEW
17:18 83.7 °F 59.5 °F 29.95 in WSW 3.0 mph 16.1 mph 44 % 0.00 in 179.0 W/m2 FEW
17:23 83.7 °F 60.1 °F 29.95 in WSW 0.3 mph 16.1 mph 45 % 0.00 in 638.0 W/m2 FEW
17:28 84.5 °F 60.2 °F 29.95 in SSW 5.5 mph 16.1 mph 44 % 0.00 in 605.0 W/m2 FEW
17:33 84.8 °F 60.5 °F 29.95 in WSW 2.5 mph 16.1 mph 44 % 0.00 in 538.0 W/m2 FEW
17:38 84.8 °F 59.8 °F 29.95 in SW 5.7 mph 15.0 mph 43 % 0.00 in 534.0 W/m2 FEW
17:43 84.1 °F 59.8 °F 29.95 in South 1.7 mph 15.0 mph 44 % 0.00 in 213.0 W/m2 FEW
17:48 84.2 °F 59.9 °F 29.95 in WSW 3.1 mph 13.8 mph 44 % 0.00 in 483.0 W/m2 FEW
17:53 84.7 °F 59.7 °F 29.95 in SW 3.6 mph 18.4 mph 43 % 0.00 in 489.0 W/m2 FEW
17:58 84.8 °F 59.2 °F 29.95 in SW 4.3 mph 18.4 mph 42 % 0.00 in 439.0 W/m2 FEW
18:08 84.5 °F 59.5 °F 29.95 in WSW 4.8 mph 15.0 mph 43 % 0.00 in 253.0 W/m2 OVC
18:13 83.8 °F 59.6 °F 29.95 in WNW 2.3 mph 15.0 mph 44 % 0.00 in 63.0 W/m2 OVC
18:18 83.2 °F 59.6 °F 29.95 in SSW 2.7 mph 15.0 mph 45 % 0.00 in 207.0 W/m2 OVC
18:23 83.5 °F 59.9 °F 29.95 in WSW 2.9 mph 11.5 mph 45 % 0.00 in 285.0 W/m2 OVC
18:28 83.3 °F 59.7 °F 29.95 in West 2.0 mph 11.5 mph 45 % 0.00 in 107.0 W/m2 OVC
18:33 83.1 °F 59.6 °F 29.95 in West 0.2 mph 11.5 mph 45 % 0.00 in 105.0 W/m2 OVC
18:38 83.1 °F 60.2 °F 29.95 in SW 3.5 mph 11.5 mph 46 % 0.00 in 262.0 W/m2 OVC
18:43 83.0 °F 60.1 °F 29.95 in SW 1.4 mph 11.5 mph 46 % 0.00 in 160.0 W/m2 OVC
18:49 83.2 °F 60.3 °F 29.95 in SSW 1.3 mph 11.5 mph 46 % 0.00 in 213.0 W/m2 OVC
18:54 83.0 °F 60.7 °F 29.96 in WSW 0.4 mph 6.9 mph 47 % 0.00 in 206.0 W/m2 OVC
19:04 82.8 °F 60.5 °F 29.96 in Calm   4.6 mph 47 % 0.00 in 162.0 W/m2 OVC
19:09 82.8 °F 60.5 °F 29.96 in SSW 3.9 mph 11.5 mph 47 % 0.00 in 137.0 W/m2 OVC
19:14 82.7 °F 60.4 °F 29.96 in SW 1.4 mph 11.5 mph 47 % 0.00 in 125.0 W/m2 OVC
19:19 82.8 °F 60.5 °F 29.97 in WSW 0.6 mph 6.9 mph 47 % 0.00 in 107.0 W/m2 OVC
19:24 82.6 °F 60.9 °F 29.97 in West 0.2 mph 8.1 mph 48 % 0.00 in 84.0 W/m2 OVC
19:29 82.4 °F 60.7 °F 29.97 in SW 2.2 mph 8.1 mph 48 % 0.00 in 72.0 W/m2 OVC
19:34 82.2 °F 60.6 °F 29.97 in Calm   8.1 mph 48 % 0.00 in 42.0 W/m2 OVC
19:39 82.1 °F 60.5 °F 29.97 in Calm   8.1 mph 48 % 0.00 in 39.0 W/m2 OVC
19:44 82.0 °F 61.0 °F 29.98 in West 0.6 mph 8.1 mph 49 % 0.00 in 35.0 W/m2 OVC
19:49 81.8 °F 60.8 °F 29.98 in SSW 1.3 mph 4.6 mph 49 % 0.00 in 26.0 W/m2 OVC
19:54 81.5 °F 61.1 °F 29.98 in Calm   3.5 mph 50 % 0.00 in 25.0 W/m2 OVC
19:59 81.3 °F 60.9 °F 29.98 in Calm   3.5 mph 50 % 0.00 in 23.0 W/m2 OVC
20:04 81.2 °F 61.4 °F 29.98 in Calm   2.3 mph 51 % 0.00 in 21.0 W/m2 FEW
20:09 80.8 °F 61.0 °F 29.98 in Calm     51 % 0.00 in 18.0 W/m2 FEW
20:14 80.7 °F 61.4 °F 29.98 in Calm     52 % 0.00 in 14.0 W/m2 FEW
20:19 80.4 °F 61.2 °F 29.98 in Calm     52 % 0.00 in 11.0 W/m2 FEW
20:24 80.0 °F 61.3 °F 29.98 in Calm     53 % 0.00 in 7.0 W/m2 FEW
20:29 79.8 °F 61.7 °F 29.99 in Calm     54 % 0.00 in 5.0 W/m2 FEW
20:34 79.4 °F 61.3 °F 29.99 in Calm     54 % 0.00 in 0.0 W/m2 FEW
20:39 79.2 °F 61.6 °F 29.99 in Calm     55 % 0.00 in 0.0 W/m2 FEW
20:44 79.0 °F 61.5 °F 29.99 in Calm     55 % 0.00 in 0.0 W/m2 FEW
20:49 78.8 °F 61.8 °F 29.99 in Calm     56 % 0.00 in 0.0 W/m2 FEW
20:54 78.5 °F 61.5 °F 29.99 in Calm     56 % 0.00 in 0.0 W/m2 FEW
20:59 78.2 °F 61.7 °F 30.00 in Calm     57 % 0.00 in 0.0 W/m2 FEW
21:04 77.8 °F 61.8 °F 30.00 in Calm     58 % 0.00 in 0.0 W/m2 CLR
21:09 77.4 °F 61.9 °F 30.00 in Calm     59 % 0.00 in 0.0 W/m2 CLR
21:14 76.7 °F 61.8 °F 30.00 in Calm     60 % 0.00 in 0.0 W/m2 CLR
21:19 76.2 °F 61.3 °F 30.00 in Calm     60 % 0.00 in 0.0 W/m2 CLR
21:29 76.2 °F 61.8 °F 30.00 in Calm     61 % 0.00 in 0.0 W/m2 CLR
21:34 76.1 °F 61.7 °F 30.00 in Calm     61 % 0.00 in 0.0 W/m2 CLR
21:39 76.1 °F 61.7 °F 30.01 in Calm     61 % 0.00 in 0.0 W/m2 CLR
21:44 75.9 °F 61.9 °F 30.01 in Calm     62 % 0.00 in 0.0 W/m2 CLR
21:49 75.8 °F 61.4 °F 30.01 in Calm     61 % 0.00 in 0.0 W/m2 CLR
21:54 75.9 °F 61.0 °F 30.01 in SW 0.1 mph 3.5 mph 60 % 0.00 in 0.0 W/m2 CLR
21:59 76.1 °F 60.7 °F 30.01 in Calm   3.5 mph 59 % 0.00 in 0.0 W/m2 CLR
22:04 76.2 °F 60.8 °F 30.01 in Calm   1.2 mph 59 % 0.00 in 0.0 W/m2 CLR
22:15 76.0 °F 61.1 °F 30.01 in Calm     60 % 0.00 in 0.0 W/m2 CLR
22:20 75.8 °F 60.9 °F 30.02 in Calm     60 % 0.00 in 0.0 W/m2 CLR
22:25 75.7 °F 60.8 °F 30.02 in Calm     60 % 0.00 in 0.0 W/m2 CLR
22:30 75.6 °F 60.7 °F 30.02 in Calm     60 % 0.00 in 0.0 W/m2 CLR
22:35 75.5 °F 60.7 °F 30.02 in Calm     60 % 0.00 in 0.0 W/m2 CLR
22:40 75.5 °F 60.6 °F 30.02 in Calm     60 % 0.00 in 0.0 W/m2 CLR
22:45 75.4 °F 60.5 °F 30.02 in SW 0.5 mph   60 % 0.00 in 0.0 W/m2 CLR
22:47 75.4 °F 60.5 °F 30.02 in SW 0.7 mph 3.5 mph 60 % 0.00 in 0.0 W/m2 CLR
22:52 75.5 °F 60.6 °F 30.02 in WSW 1.0 mph 5.8 mph 60 % 0.00 in 0.0 W/m2 CLR
22:57 75.5 °F 60.6 °F 30.02 in Calm   5.8 mph 60 % 0.00 in 0.0 W/m2 CLR
23:02 75.5 °F 60.6 °F 30.02 in West 0.3 mph 4.6 mph 60 % 0.00 in 0.0 W/m2 CLR
23:07 75.4 °F 60.5 °F 30.02 in Calm   3.5 mph 60 % 0.00 in 0.0 W/m2 CLR
23:12 75.3 °F 60.5 °F 30.02 in Calm   3.5 mph 60 % 0.00 in 0.0 W/m2 CLR
23:17 75.1 °F 60.3 °F 30.02 in Calm     60 % 0.00 in 0.0 W/m2 CLR
23:22 74.8 °F 60.4 °F 30.03 in Calm     61 % 0.00 in 0.0 W/m2 CLR
23:27 74.2 °F 60.3 °F 30.03 in Calm     62 % 0.00 in 0.0 W/m2 CLR
23:32 74.1 °F 60.7 °F 30.03 in Calm     63 % 0.00 in 0.0 W/m2 CLR
23:37 73.9 °F 60.5 °F 30.03 in Calm     63 % 0.00 in 0.0 W/m2 CLR
23:42 73.7 °F 60.3 °F 30.03 in Calm     63 % 0.00 in 0.0 W/m2 CLR
23:47 73.5 °F 60.6 °F 30.03 in Calm     64 % 0.00 in 0.0 W/m2 CLR
23:52 73.3 °F 60.4 °F 30.03 in Calm     64 % 0.00 in 0.0 W/m2 CLR
23:57 73.2 °F 60.7 °F 30.03 in Calm     65 % 0.00 in 0.0 W/m2 CLR
Air Products Campus Weather
Compliments of Weather Underground - 3.5 mb